Location: Chillicothe
(39.7950°N, 93.5520°W)
Time: 21:26:45
(UTC-06:00)

BEESAT - Pass Details

Date: 23 November 2019
Orbit: 700 x 709 km, 98.6° (Epoch: 11 December)

Event Time Altitude Azimuth Distance (km) Brightness Sun altitude
Rises 19:12:40 0° 353° (N) 3,098 ? -26.5°
Reaches altitude 10° 19:15:59 10° 328° (NNW) 2,176 ? -27.1°
Maximum altitude 19:18:20 14° 298° (WNW) 1,923 ? -27.6°
Drops below altitude 10° 19:20:42 10° 268° (W) 2,171 ? -28.0°
Sets 19:24:00 0° 243° (WSW) 3,087 ? -28.7°
